{"data":{"norad_id":51753,"intl_designator":"2022-016AR","name":"STARLINK-3507","alt_names":[],"object_type":"PAYLOAD","status":"ACTIVE","operator":null,"country":"US","launch_date":"2022-02-21","launch_site_code":"AFETR","launch_vehicle":null,"mission":null,"orbit_class":"UNKNOWN","rcs_meters":null,"size_class":null,"mass_kg":null,"dimensions":null,"purposes":["comms"],"wikipedia_slug":null,"has_3d_model":false,"image_url":null,"decayed_at":null,"tle_current":{"epoch":"2026-09-19T22:18:03.187584Z","epoch_age_seconds":101545,"freshness":"FRESH","line1":"1 51753U 22016AR  26262.92920356 -.00000141  00000+0  70392-5 0  9998","line2":"2 51753  53.1590 142.5549 0001269  93.4423 266.6725 15.33544969253226","mean_motion":15.33544969,"eccentricity":0.0001269,"inclination_deg":53.159,"raan_deg":142.5549,"arg_perigee_deg":93.4423,"mean_anomaly_deg":266.6725,"bstar":7.0392e-6,"rev_number":25322,"period_min":93.900083082598,"perigee_km":464.37732795487,"apogee_km":466.11417849764,"semimajor_km":6843.3827532263,"source":"CELESTRAK","updated_at":"2026-09-20T09:00:39.934176Z"}}}